contact:dominique.lefevre@mio.osupytheas.fr, maurice.libes@osupytheas.fr, didier.mallarino@osupytheas.fr
Project:EMSO http://www.emso-fr.org/EMSO-France
Depth: 2436.0 m
Title:EMSO Ligure Ouest : Data MII capteur CSTAR
DateTime,Latitude,Longitude,Instrument_Serial,Reference_Counts,Signal_Counts,Corrected_Signal_raw_counts,Calculated_Beam_c_inverse_meters,Internal_thermistor_counts
DateTime,Latitude,Longitude,Instrument_Serial,Reference_Counts,Signal_Counts,Corrected_Signal_raw_counts,Calculated_Beam_c_inverse_meters,Internal_thermistor_counts
2023-04-24T00:00:49,42.805,6.029,CST-1368DR,4318,4780,11755,01.136,551
2023-04-24T00:03:51,42.805,6.029,CST-1368DR,4318,4779,11753,01.137,552
2023-04-24T00:06:52,42.805,6.029,CST-1368DR,4318,4780,11754,01.136,551
2023-04-24T00:09:54,42.805,6.029,CST-1368DR,4318,4780,11753,01.137,552
2023-04-24T00:12:56,42.805,6.029,CST-1368DR,4318,4780,11753,01.137,552
2023-04-24T00:15:57,42.805,6.029,CST-1368DR,4318,4788,11774,01.130,551
2023-04-24T00:18:59,42.805,6.029,CST-1368DR,4318,4790,11779,01.128,552
2023-04-24T00:22:00,42.805,6.029,CST-1368DR,4319,4790,11777,01.129,551
2023-04-24T00:25:02,42.805,6.029,CST-1368DR,4318,4781,11758,01.135,551
2023-04-24T00:28:03,42.805,6.029,CST-1368DR,4318,4781,11757,01.135,551
2023-04-24T00:31:05,42.805,6.029,CST-1368DR,4318,4780,11755,01.136,551
2023-04-24T00:34:07,42.805,6.029,CST-1368DR,4318,4780,11753,01.137,552
2023-04-24T00:37:08,42.805,6.029,CST-1368DR,4318,4779,11752,01.137,551
2023-04-24T00:40:10,42.805,6.029,CST-1368DR,4318,4781,11756,01.136,551
2023-04-24T00:43:11,42.805,6.029,CST-1368DR,4318,4780,11754,01.136,551
2023-04-24T00:46:13,42.805,6.029,CST-1368DR,4318,4779,11751,01.137,552
2023-04-24T00:49:15,42.805,6.029,CST-1368DR,4318,4780,11755,01.136,551
2023-04-24T00:52:16,42.805,6.029,CST-1368DR,4318,4779,11752,01.137,551
2023-04-24T00:55:18,42.805,6.029,CST-1368DR,4318,4781,11756,01.136,551
2023-04-24T00:58:19,42.805,6.029,CST-1368DR,4318,4781,11758,01.135,551
2023-04-24T01:01:21,42.805,6.029,CST-1368DR,4318,4782,11760,01.134,551
2023-04-24T01:04:22,42.805,6.029,CST-1368DR,4318,4779,11752,01.137,551
2023-04-24T01:07:24,42.805,6.029,CST-1368DR,4318,4781,11757,01.135,551
2023-04-24T01:10:26,42.805,6.029,CST-1368DR,4318,4781,11757,01.135,552
2023-04-24T01:13:27,42.805,6.029,CST-1368DR,4318,4781,11757,01.135,551
2023-04-24T01:16:29,42.805,6.029,CST-1368DR,4318,4780,11755,01.136,552
2023-04-24T01:19:30,42.805,6.029,CST-1368DR,4318,4783,11762,01.134,552
2023-04-24T01:22:32,42.805,6.029,CST-1368DR,4318,4784,11764,01.133,551
2023-04-24T01:25:33,42.805,6.029,CST-1368DR,4318,4784,11764,01.133,551
2023-04-24T01:28:35,42.805,6.029,CST-1368DR,4318,4784,11764,01.133,552
2023-04-24T01:31:37,42.805,6.029,CST-1368DR,4318,4795,11791,01.124,552
2023-04-24T01:34:38,42.805,6.029,CST-1368DR,4318,4793,11787,01.125,551
2023-04-24T01:37:40,42.805,6.029,CST-1368DR,4318,4782,11760,01.134,551
2023-04-24T01:40:41,42.805,6.029,CST-1368DR,4318,4784,11764,01.133,552
2023-04-24T01:43:43,42.805,6.029,CST-1368DR,4318,4787,11772,01.130,552
2023-04-24T01:46:45,42.805,6.029,CST-1368DR,4318,4784,11765,01.133,551
2023-04-24T01:49:46,42.805,6.029,CST-1368DR,4318,4784,11765,01.133,551
2023-04-24T01:52:48,42.805,6.029,CST-1368DR,4318,4782,11760,01.134,552
2023-04-24T01:55:49,42.805,6.029,CST-1368DR,4318,4782,11760,01.134,551
2023-04-24T01:58:51,42.805,6.029,CST-1368DR,4318,4784,11764,01.133,552
2023-04-24T02:01:52,42.805,6.029,CST-1368DR,4318,4784,11765,01.133,552
2023-04-24T02:04:54,42.805,6.029,CST-1368DR,4318,4784,11764,01.133,551
2023-04-24T02:07:56,42.805,6.029,CST-1368DR,4318,4784,11763,01.133,551
2023-04-24T02:10:57,42.805,6.029,CST-1368DR,4318,4782,11760,01.134,552
2023-04-24T02:13:59,42.805,6.029,CST-1368DR,4318,4785,11766,01.132,552
2023-04-24T02:17:00,42.805,6.029,CST-1368DR,4318,4781,11758,01.135,551
2023-04-24T02:20:02,42.805,6.029,CST-1368DR,4318,4781,11757,01.135,551
2023-04-24T02:23:03,42.805,6.029,CST-1368DR,4318,4781,11757,01.135,551
2023-04-24T02:26:05,42.805,6.029,CST-1368DR,4318,4784,11765,01.133,551
2023-04-24T02:29:07,42.805,6.029,CST-1368DR,4318,4782,11760,01.134,551
2023-04-24T02:32:08,42.805,6.029,CST-1368DR,4318,4781,11756,01.136,551
2023-04-24T02:35:10,42.805,6.029,CST-1368DR,4318,4783,11763,01.133,551
2023-04-24T02:38:11,42.805,6.029,CST-1368DR,4318,4783,11761,01.134,551
2023-04-24T02:41:13,42.805,6.029,CST-1368DR,4318,4781,11757,01.135,552
2023-04-24T02:44:15,42.805,6.029,CST-1368DR,4318,4781,11757,01.135,551
2023-04-24T02:47:16,42.805,6.029,CST-1368DR,4318,4779,11753,01.137,552
2023-04-24T02:50:18,42.805,6.029,CST-1368DR,4318,4781,11757,01.135,551
2023-04-24T02:53:19,42.805,6.029,CST-1368DR,4318,4793,11787,01.125,551
2023-04-24T02:56:21,42.805,6.029,CST-1368DR,4318,4783,11761,01.134,552
2023-04-24T02:59:22,42.805,6.029,CST-1368DR,4318,4783,11761,01.134,552
2023-04-24T03:02:24,42.805,6.029,CST-1368DR,4318,4783,11763,01.133,551
2023-04-24T03:05:26,42.805,6.029,CST-1368DR,4318,4783,11763,01.133,551
2023-04-24T03:08:27,42.805,6.029,CST-1368DR,4318,4783,11761,01.134,552
2023-04-24T03:11:29,42.805,6.029,CST-1368DR,4318,4780,11755,01.136,551
2023-04-24T03:14:30,42.805,6.029,CST-1368DR,4318,4784,11765,01.133,551
2023-04-24T03:17:32,42.805,6.029,CST-1368DR,4318,4781,11756,01.136,551
2023-04-24T03:20:33,42.805,6.029,CST-1368DR,4318,4781,11756,01.136,551
2023-04-24T03:23:35,42.805,6.029,CST-1368DR,4318,4782,11760,01.134,551
2023-04-24T03:26:37,42.805,6.029,CST-1368DR,4318,4783,11763,01.133,552
2023-04-24T03:29:38,42.805,6.029,CST-1368DR,4318,4780,11755,01.136,552
2023-04-24T03:32:40,42.805,6.029,CST-1368DR,4318,4780,11755,01.136,551
2023-04-24T03:35:41,42.805,6.029,CST-1368DR,4318,4780,11753,01.137,552
2023-04-24T03:38:43,42.805,6.029,CST-1368DR,4318,4783,11762,01.134,551
2023-04-24T03:41:45,42.805,6.029,CST-1368DR,4318,4784,11764,01.133,551
2023-04-24T03:44:46,42.805,6.029,CST-1368DR,4318,4781,11757,01.135,551
2023-04-24T03:47:48,42.805,6.029,CST-1368DR,4318,4783,11761,01.134,551
2023-04-24T03:50:49,42.805,6.029,CST-1368DR,4318,4784,11764,01.133,552
2023-04-24T03:53:51,42.805,6.029,CST-1368DR,4318,4783,11763,01.133,551
2023-04-24T03:56:52,42.805,6.029,CST-1368DR,4318,4784,11764,01.133,551
2023-04-24T03:59:54,42.805,6.029,CST-1368DR,4318,4784,11765,01.133,551
2023-04-24T04:02:56,42.805,6.029,CST-1368DR,4318,4784,11764,01.133,551
2023-04-24T04:05:57,42.805,6.029,CST-1368DR,4318,4785,11766,01.132,552
2023-04-24T04:08:59,42.805,6.029,CST-1368DR,4318,4786,11769,01.131,551
2023-04-24T04:12:00,42.805,6.029,CST-1368DR,4318,4784,11764,01.133,551
2023-04-24T04:15:02,42.805,6.029,CST-1368DR,4318,4783,11762,01.134,552
2023-04-24T04:18:04,42.805,6.029,CST-1368DR,4318,4785,11766,01.132,551
2023-04-24T04:21:05,42.805,6.029,CST-1368DR,4318,4776,11744,01.140,552
2023-04-24T04:24:07,42.805,6.029,CST-1368DR,4318,4780,11755,01.136,551
2023-04-24T04:27:08,42.805,6.029,CST-1368DR,4318,4773,11736,01.143,552
2023-04-24T04:30:10,42.805,6.029,CST-1368DR,4318,4772,11734,01.143,552
2023-04-24T04:33:11,42.805,6.029,CST-1368DR,4318,4772,11735,01.143,552
2023-04-24T04:36:13,42.805,6.029,CST-1368DR,4318,4769,11728,01.145,552
2023-04-24T04:39:15,42.805,6.029,CST-1368DR,4318,4769,11728,01.145,552
2023-04-24T04:42:16,42.805,6.029,CST-1368DR,4318,4797,11795,01.122,551
2023-04-24T04:45:18,42.805,6.029,CST-1368DR,4318,4788,11774,01.130,551
2023-04-24T04:48:19,42.805,6.029,CST-1368DR,4318,4789,11777,01.129,551
2023-04-24T04:51:21,42.805,6.029,CST-1368DR,4318,4787,11771,01.131,551
2023-04-24T04:54:22,42.805,6.029,CST-1368DR,4318,4789,11777,01.129,552
2023-04-24T04:57:24,42.805,6.029,CST-1368DR,4318,4786,11770,01.131,551
2023-04-24T05:00:26,42.805,6.029,CST-1368DR,4318,4786,11769,01.131,551
2023-04-24T05:03:27,42.805,6.029,CST-1368DR,4318,4787,11771,01.131,552
2023-04-24T05:06:29,42.805,6.029,CST-1368DR,4318,4795,11791,01.124,552
2023-04-24T05:09:30,42.805,6.029,CST-1368DR,4318,4792,11784,01.126,551
2023-04-24T05:12:32,42.805,6.029,CST-1368DR,4318,4790,11779,01.128,551
2023-04-24T05:15:33,42.805,6.029,CST-1368DR,4318,4795,11791,01.124,552
2023-04-24T05:18:35,42.805,6.029,CST-1368DR,4318,4790,11779,01.128,552
2023-04-24T05:21:37,42.805,6.029,CST-1368DR,4318,4785,11766,01.132,551
2023-04-24T05:24:38,42.805,6.029,CST-1368DR,4318,4786,11769,01.131,551
2023-04-24T05:27:40,42.805,6.029,CST-1368DR,4318,4785,11766,01.132,551
2023-04-24T05:30:41,42.805,6.029,CST-1368DR,4318,4783,11763,01.133,552
2023-04-24T05:33:43,42.805,6.029,CST-1368DR,4318,4786,11770,01.131,551
2023-04-24T05:36:45,42.805,6.029,CST-1368DR,4318,4786,11770,01.131,551
2023-04-24T05:39:46,42.805,6.029,CST-1368DR,4318,4781,11757,01.135,552
2023-04-24T05:42:48,42.805,6.029,CST-1368DR,4318,4783,11762,01.134,551
2023-04-24T05:45:49,42.805,6.029,CST-1368DR,4318,4783,11761,01.134,552
2023-04-24T05:48:51,42.805,6.029,CST-1368DR,4318,4782,11760,01.134,551
2023-04-24T05:51:52,42.805,6.029,CST-1368DR,4318,4781,11758,01.135,552
2023-04-24T05:54:54,42.805,6.029,CST-1368DR,4318,4793,11785,01.126,552
2023-04-24T05:57:56,42.805,6.029,CST-1368DR,4318,4785,11766,01.132,552
2023-04-24T06:00:57,42.805,6.029,CST-1368DR,4318,4784,11764,01.133,551
2023-04-24T06:03:59,42.805,6.029,CST-1368DR,4318,4784,11764,01.133,551
2023-04-24T06:07:00,42.805,6.029,CST-1368DR,4318,4789,11776,01.129,551
2023-04-24T06:10:02,42.805,6.029,CST-1368DR,4318,4786,11769,01.131,552
2023-04-24T06:13:03,42.805,6.029,CST-1368DR,4318,4783,11763,01.133,551
2023-04-24T06:16:05,42.805,6.029,CST-1368DR,4318,4784,11765,01.133,552
2023-04-24T06:19:07,42.805,6.029,CST-1368DR,4318,4785,11766,01.132,551
2023-04-24T06:22:08,42.805,6.029,CST-1368DR,4318,4786,11768,01.132,551
2023-04-24T06:25:10,42.805,6.029,CST-1368DR,4318,4786,11769,01.131,551
2023-04-24T06:28:11,42.805,6.029,CST-1368DR,4318,4787,11771,01.131,551
2023-04-24T06:31:12,42.805,6.029,CST-1368DR,4318,4783,11763,01.133,552
2023-04-24T06:34:14,42.805,6.029,CST-1368DR,4318,4784,11763,01.133,551
2023-04-24T06:37:16,42.805,6.029,CST-1368DR,4318,4786,11769,01.131,551
2023-04-24T06:40:17,42.805,6.029,CST-1368DR,4318,4787,11773,01.130,551
2023-04-24T06:43:19,42.805,6.029,CST-1368DR,4318,4785,11766,01.132,551
2023-04-24T06:46:20,42.805,6.029,CST-1368DR,4318,4787,11773,01.130,552
2023-04-24T06:49:22,42.805,6.029,CST-1368DR,4318,4782,11760,01.134,551
2023-04-24T06:52:24,42.805,6.029,CST-1368DR,4318,4786,11769,01.131,551
2023-04-24T06:55:25,42.805,6.029,CST-1368DR,4318,4787,11773,01.130,551
2023-04-24T06:58:27,42.805,6.029,CST-1368DR,4318,4785,11768,01.132,551
2023-04-24T07:01:28,42.805,6.029,CST-1368DR,4318,4784,11764,01.133,551
2023-04-24T07:04:30,42.805,6.029,CST-1368DR,4318,4786,11769,01.131,551
2023-04-24T07:07:31,42.805,6.029,CST-1368DR,4318,4787,11771,01.131,552
2023-04-24T07:10:33,42.805,6.029,CST-1368DR,4318,4783,11761,01.134,551
2023-04-24T07:13:35,42.805,6.029,CST-1368DR,4318,4784,11763,01.133,552
2023-04-24T07:16:36,42.805,6.029,CST-1368DR,4318,4786,11769,01.131,551
2023-04-24T07:19:38,42.805,6.029,CST-1368DR,4318,4788,11773,01.130,552
2023-04-24T07:22:39,42.805,6.029,CST-1368DR,4318,4787,11772,01.130,552
2023-04-24T07:25:41,42.805,6.029,CST-1368DR,4318,4795,11791,01.124,551
2023-04-24T07:28:42,42.805,6.029,CST-1368DR,4318,4793,11787,01.125,551
2023-04-24T07:31:44,42.805,6.029,CST-1368DR,4318,4790,11780,01.128,551
2023-04-24T07:34:46,42.805,6.029,CST-1368DR,4318,4784,11765,01.133,551
2023-04-24T07:37:47,42.805,6.029,CST-1368DR,4318,4791,11782,01.127,552
2023-04-24T07:40:49,42.805,6.029,CST-1368DR,4318,4786,11769,01.131,552
2023-04-24T07:43:50,42.805,6.029,CST-1368DR,4318,4786,11770,01.131,551
2023-04-24T07:46:52,42.805,6.029,CST-1368DR,4318,4791,11781,01.127,552
2023-04-24T07:49:54,42.805,6.029,CST-1368DR,4318,4785,11768,01.132,551
2023-04-24T07:52:55,42.805,6.029,CST-1368DR,4318,4788,11775,01.129,552
2023-04-24T07:55:57,42.805,6.029,CST-1368DR,4318,4788,11775,01.129,552
2023-04-24T07:58:58,42.805,6.029,CST-1368DR,4318,4784,11763,01.133,552
2023-04-24T08:02:00,42.805,6.029,CST-1368DR,4318,4785,11766,01.132,552
2023-04-24T08:05:01,42.805,6.029,CST-1368DR,4318,4787,11772,01.130,551
2023-04-24T08:08:03,42.805,6.029,CST-1368DR,4318,4785,11768,01.132,551
2023-04-24T08:11:05,42.805,6.029,CST-1368DR,4318,4786,11769,01.131,551
2023-04-24T08:14:06,42.805,6.029,CST-1368DR,4318,4787,11773,01.130,551
2023-04-24T08:17:08,42.805,6.029,CST-1368DR,4318,4784,11765,01.133,552
2023-04-24T08:20:09,42.805,6.029,CST-1368DR,4318,4783,11762,01.134,551
2023-04-24T08:23:11,42.805,6.029,CST-1368DR,4318,4786,11769,01.131,552
2023-04-24T08:26:12,42.805,6.029,CST-1368DR,4318,4784,11764,01.133,551
2023-04-24T08:29:14,42.805,6.029,CST-1368DR,4318,4786,11769,01.131,551
2023-04-24T08:32:16,42.805,6.029,CST-1368DR,4318,4782,11760,01.134,551
2023-04-24T08:35:17,42.805,6.029,CST-1368DR,4318,4786,11768,01.132,552
2023-04-24T08:38:19,42.805,6.029,CST-1368DR,4318,4782,11760,01.134,552
2023-04-24T08:41:20,42.805,6.029,CST-1368DR,4318,4782,11760,01.134,551
2023-04-24T08:44:22,42.805,6.029,CST-1368DR,4318,4786,11768,01.132,551
2023-04-24T08:47:24,42.805,6.029,CST-1368DR,4318,4781,11757,01.135,551
2023-04-24T08:50:25,42.805,6.029,CST-1368DR,4318,4782,11758,01.135,552
2023-04-24T08:53:27,42.805,6.029,CST-1368DR,4318,4786,11768,01.132,551
2023-04-24T08:56:28,42.805,6.029,CST-1368DR,4318,4785,11766,01.132,551
2023-04-24T08:59:30,42.805,6.029,CST-1368DR,4318,4786,11769,01.131,552
2023-04-24T09:02:31,42.805,6.029,CST-1368DR,4318,4784,11765,01.133,552
2023-04-24T09:05:33,42.805,6.029,CST-1368DR,4318,4796,11795,01.122,551
2023-04-24T09:08:35,42.805,6.029,CST-1368DR,4318,4783,11763,01.133,552
2023-04-24T09:11:36,42.805,6.029,CST-1368DR,4318,4787,11771,01.131,551
2023-04-24T09:14:38,42.805,6.029,CST-1368DR,4318,4786,11768,01.132,551
2023-04-24T09:17:39,42.805,6.029,CST-1368DR,4318,4782,11758,01.135,551
2023-04-24T09:20:41,42.805,6.029,CST-1368DR,4318,4783,11763,01.133,552
2023-04-24T09:23:42,42.805,6.029,CST-1368DR,4318,4786,11769,01.131,552
2023-04-24T09:26:44,42.805,6.029,CST-1368DR,4318,4777,11748,01.138,551
2023-04-24T09:29:46,42.805,6.029,CST-1368DR,4318,4783,11761,01.134,552
2023-04-24T09:32:47,42.805,6.029,CST-1368DR,4318,4786,11769,01.131,551
2023-04-24T09:35:49,42.805,6.029,CST-1368DR,4318,4782,11760,01.134,552
2023-04-24T09:38:50,42.805,6.029,CST-1368DR,4318,4780,11754,01.136,551
2023-04-24T09:41:52,42.805,6.029,CST-1368DR,4318,4784,11764,01.133,551
2023-04-24T09:44:53,42.805,6.029,CST-1368DR,4318,4781,11758,01.135,552
2023-04-24T09:47:55,42.805,6.029,CST-1368DR,4318,4784,11765,01.133,552
2023-04-24T09:50:57,42.805,6.029,CST-1368DR,4318,4783,11762,01.134,551
2023-04-24T09:53:58,42.805,6.029,CST-1368DR,4318,4781,11757,01.135,551
2023-04-24T09:57:00,42.805,6.029,CST-1368DR,4318,4781,11756,01.136,551
2023-04-24T10:00:01,42.805,6.029,CST-1368DR,4318,4784,11765,01.133,552
2023-04-24T10:03:03,42.805,6.029,CST-1368DR,4318,4783,11761,01.134,551
2023-04-24T10:06:05,42.805,6.029,CST-1368DR,4318,4790,11779,01.128,551
2023-04-24T10:09:06,42.805,6.029,CST-1368DR,4318,4781,11757,01.135,551
2023-04-24T10:12:08,42.805,6.029,CST-1368DR,4318,4781,11758,01.135,551
2023-04-24T10:15:09,42.805,6.029,CST-1368DR,4318,4788,11775,01.129,551
2023-04-24T10:18:11,42.805,6.029,CST-1368DR,4318,4781,11758,01.135,551
2023-04-24T10:21:12,42.805,6.029,CST-1368DR,4318,4783,11761,01.134,551
2023-04-24T10:24:14,42.805,6.029,CST-1368DR,4318,4784,11764,01.133,552
2023-04-24T10:27:16,42.805,6.029,CST-1368DR,4318,4784,11765,01.133,551
2023-04-24T10:30:18,42.805,6.029,CST-1368DR,4318,4782,11760,01.134,551
2023-04-24T10:33:19,42.805,6.029,CST-1368DR,4318,4793,11785,01.126,551
2023-04-24T10:36:21,42.805,6.029,CST-1368DR,4318,4780,11754,01.136,551
2023-04-24T10:39:23,42.805,6.029,CST-1368DR,4318,4784,11765,01.133,552
2023-04-24T10:42:24,42.805,6.029,CST-1368DR,4318,4786,11769,01.131,551
2023-04-24T10:45:26,42.805,6.029,CST-1368DR,4318,4787,11771,01.131,551
2023-04-24T10:48:27,42.805,6.029,CST-1368DR,4318,4785,11766,01.132,552
2023-04-24T10:51:29,42.805,6.029,CST-1368DR,4318,4785,11766,01.132,552
2023-04-24T10:54:30,42.805,6.029,CST-1368DR,4318,4782,11758,01.135,551
2023-04-24T10:57:32,42.805,6.029,CST-1368DR,4318,4786,11770,01.131,551
2023-04-24T11:00:34,42.805,6.029,CST-1368DR,4318,4784,11763,01.133,552
2023-04-24T11:03:35,42.805,6.029,CST-1368DR,4318,4785,11768,01.132,552
2023-04-24T11:06:37,42.805,6.029,CST-1368DR,4318,4782,11760,01.134,551
2023-04-24T11:09:38,42.805,6.029,CST-1368DR,4318,4786,11769,01.131,551
2023-04-24T11:12:40,42.805,6.029,CST-1368DR,4318,4783,11763,01.133,551
2023-04-24T11:15:42,42.805,6.029,CST-1368DR,4318,4780,11755,01.136,552
2023-04-24T11:18:43,42.805,6.029,CST-1368DR,4318,4786,11769,01.131,551
2023-04-24T11:21:45,42.805,6.029,CST-1368DR,4318,4790,11779,01.128,551
2023-04-24T11:24:46,42.805,6.029,CST-1368DR,4318,4784,11765,01.133,551
2023-04-24T11:27:48,42.805,6.029,CST-1368DR,4318,4781,11757,01.135,552
2023-04-24T11:30:49,42.805,6.029,CST-1368DR,4318,4782,11760,01.134,552
2023-04-24T11:33:51,42.805,6.029,CST-1368DR,4318,4783,11762,01.134,552
2023-04-24T11:36:53,42.805,6.029,CST-1368DR,4318,4785,11766,01.132,552
2023-04-24T11:39:54,42.805,6.029,CST-1368DR,4318,4783,11761,01.134,552
2023-04-24T11:42:56,42.805,6.029,CST-1368DR,4318,4782,11760,01.134,551
2023-04-24T11:45:57,42.805,6.029,CST-1368DR,4318,4782,11760,01.134,551
2023-04-24T11:48:59,42.805,6.029,CST-1368DR,4318,4784,11765,01.133,551
2023-04-24T11:52:00,42.805,6.029,CST-1368DR,4318,4780,11755,01.136,551
2023-04-24T11:55:02,42.805,6.029,CST-1368DR,4318,4783,11761,01.134,551
2023-04-24T11:58:04,42.805,6.029,CST-1368DR,4318,4787,11771,01.131,552
2023-04-24T12:01:05,42.805,6.029,CST-1368DR,4318,4786,11768,01.132,551
2023-04-24T12:04:07,42.805,6.029,CST-1368DR,4318,4784,11765,01.133,552
2023-04-24T12:07:08,42.805,6.029,CST-1368DR,4318,4781,11756,01.136,551
2023-04-24T12:10:10,42.805,6.029,CST-1368DR,4318,4786,11770,01.131,552
2023-04-24T12:13:12,42.805,6.029,CST-1368DR,4318,4782,11760,01.134,551
2023-04-24T12:16:13,42.805,6.029,CST-1368DR,4318,4779,11751,01.137,552
2023-04-24T12:19:15,42.805,6.029,CST-1368DR,4318,4784,11764,01.133,552
2023-04-24T12:22:16,42.805,6.029,CST-1368DR,4318,4784,11763,01.133,551
2023-04-24T12:25:18,42.805,6.029,CST-1368DR,4318,4787,11773,01.130,552
2023-04-24T12:28:19,42.805,6.029,CST-1368DR,4318,4782,11760,01.134,552
2023-04-24T12:31:22,42.805,6.029,CST-1368DR,4318,4785,11766,01.132,551
2023-04-24T12:34:23,42.805,6.029,CST-1368DR,4318,4784,11764,01.133,552
2023-04-24T12:37:25,42.805,6.029,CST-1368DR,4318,4781,11756,01.136,552
2023-04-24T12:40:27,42.805,6.029,CST-1368DR,4318,4781,11756,01.136,552
2023-04-24T12:43:28,42.805,6.029,CST-1368DR,4318,4781,11758,01.135,552
2023-04-24T12:46:30,42.805,6.029,CST-1368DR,4318,4785,11766,01.132,551
2023-04-24T12:49:31,42.805,6.029,CST-1368DR,4318,4786,11769,01.131,551
2023-04-24T12:52:33,42.805,6.029,CST-1368DR,4318,4786,11770,01.131,551
2023-04-24T12:55:34,42.805,6.029,CST-1368DR,4318,4781,11757,01.135,552
2023-04-24T12:58:36,42.805,6.029,CST-1368DR,4318,4781,11758,01.135,552
2023-04-24T13:01:38,42.805,6.029,CST-1368DR,4318,4782,11760,01.134,551
2023-04-24T13:04:39,42.805,6.029,CST-1368DR,4318,4784,11765,01.133,551
2023-04-24T13:07:41,42.805,6.029,CST-1368DR,4318,4782,11758,01.135,552
2023-04-24T13:10:42,42.805,6.029,CST-1368DR,4318,4783,11763,01.133,551
2023-04-24T13:13:44,42.805,6.029,CST-1368DR,4318,4782,11758,01.135,552
2023-04-24T13:16:45,42.805,6.029,CST-1368DR,4318,4786,11768,01.132,551
2023-04-24T13:19:47,42.805,6.029,CST-1368DR,4318,4787,11772,01.130,552
2023-04-24T13:22:49,42.805,6.029,CST-1368DR,4318,4789,11777,01.129,551
2023-04-24T13:25:50,42.805,6.029,CST-1368DR,4318,4788,11774,01.130,551
2023-04-24T13:28:52,42.805,6.029,CST-1368DR,4318,4786,11769,01.131,551
2023-04-24T13:31:53,42.805,6.029,CST-1368DR,4318,4789,11777,01.129,552
2023-04-24T13:34:55,42.805,6.029,CST-1368DR,4318,4787,11771,01.131,551
2023-04-24T13:37:57,42.805,6.029,CST-1368DR,4318,4786,11769,01.131,551
2023-04-24T13:40:58,42.805,6.029,CST-1368DR,4318,4791,11782,01.127,552
2023-04-24T13:44:00,42.805,6.029,CST-1368DR,4318,4786,11768,01.132,552
2023-04-24T13:47:01,42.805,6.029,CST-1368DR,4318,4789,11777,01.129,552
2023-04-24T13:50:03,42.805,6.029,CST-1368DR,4318,4786,11769,01.131,551
2023-04-24T13:53:04,42.805,6.029,CST-1368DR,4318,4797,11795,01.122,551
2023-04-24T13:56:06,42.805,6.029,CST-1368DR,4318,4790,11779,01.128,551
2023-04-24T13:59:08,42.805,6.029,CST-1368DR,4318,4793,11787,01.125,552
2023-04-24T14:02:09,42.805,6.029,CST-1368DR,4318,4795,11790,01.124,552
2023-04-24T14:05:11,42.805,6.029,CST-1368DR,4318,4791,11782,01.127,551
2023-04-24T14:08:12,42.805,6.029,CST-1368DR,4318,4790,11779,01.128,551
2023-04-24T14:11:14,42.805,6.029,CST-1368DR,4318,4791,11781,01.127,552
2023-04-24T14:14:15,42.805,6.029,CST-1368DR,4318,4796,11794,01.123,552
2023-04-24T14:17:17,42.805,6.029,CST-1368DR,4318,4794,11790,01.124,551
2023-04-24T14:20:19,42.805,6.029,CST-1368DR,4318,4792,11783,01.127,552
2023-04-24T14:23:20,42.805,6.029,CST-1368DR,4318,4795,11792,01.123,551
2023-04-24T14:26:22,42.805,6.029,CST-1368DR,4318,4795,11792,01.123,551
2023-04-24T14:29:23,42.805,6.029,CST-1368DR,4318,4794,11788,01.125,551
2023-04-24T14:32:25,42.805,6.029,CST-1368DR,4318,4794,11788,01.125,551
2023-04-24T14:35:26,42.805,6.029,CST-1368DR,4318,4795,11790,01.124,551
2023-04-24T14:38:28,42.805,6.029,CST-1368DR,4318,4794,11790,01.124,551
2023-04-24T14:41:30,42.805,6.029,CST-1368DR,4318,4793,11787,01.125,551
2023-04-24T14:44:31,42.805,6.029,CST-1368DR,4318,4792,11784,01.126,551
2023-04-24T14:47:33,42.805,6.029,CST-1368DR,4318,4799,11801,01.120,551
2023-04-24T14:50:34,42.805,6.029,CST-1368DR,4318,4799,11801,01.120,551
2023-04-24T14:53:36,42.805,6.029,CST-1368DR,4318,4797,11795,01.122,551
2023-04-24T14:56:38,42.805,6.029,CST-1368DR,4318,4799,11802,01.120,551
2023-04-24T14:59:39,42.805,6.029,CST-1368DR,4318,4795,11790,01.124,551
2023-04-24T15:02:41,42.805,6.029,CST-1368DR,4318,4793,11787,01.125,552
2023-04-24T15:05:42,42.805,6.029,CST-1368DR,4318,4799,11802,01.120,551
2023-04-24T15:08:44,42.805,6.029,CST-1368DR,4318,4794,11790,01.124,551
2023-04-24T15:11:45,42.805,6.029,CST-1368DR,4318,4793,11787,01.125,551
2023-04-24T15:14:47,42.805,6.029,CST-1368DR,4318,4794,11789,01.125,551
2023-04-24T15:17:49,42.805,6.029,CST-1368DR,4318,4797,11796,01.122,551
2023-04-24T15:20:50,42.805,6.029,CST-1368DR,4318,4797,11795,01.122,551
2023-04-24T15:23:52,42.805,6.029,CST-1368DR,4318,4794,11790,01.124,552
2023-04-24T15:26:53,42.805,6.029,CST-1368DR,4318,4798,11798,01.121,551
2023-04-24T15:29:55,42.805,6.029,CST-1368DR,4318,4795,11791,01.124,551
2023-04-24T15:32:56,42.805,6.029,CST-1368DR,4318,4796,11795,01.122,551
2023-04-24T15:35:58,42.805,6.029,CST-1368DR,4318,4793,11787,01.125,551
2023-04-24T15:39:00,42.805,6.029,CST-1368DR,4318,4797,11795,01.122,551
2023-04-24T15:42:01,42.805,6.029,CST-1368DR,4318,4796,11793,01.123,552
2023-04-24T15:45:03,42.805,6.029,CST-1368DR,4318,4794,11789,01.125,551
2023-04-24T15:48:04,42.805,6.029,CST-1368DR,4318,4794,11790,01.124,551
2023-04-24T15:51:06,42.805,6.029,CST-1368DR,4318,4797,11797,01.122,551
2023-04-24T15:54:08,42.805,6.029,CST-1368DR,4318,4807,11822,01.113,551
2023-04-24T15:57:09,42.805,6.029,CST-1368DR,4318,4798,11798,01.121,552
2023-04-24T16:00:11,42.805,6.029,CST-1368DR,4318,4793,11787,01.125,552
2023-04-24T16:03:12,42.805,6.029,CST-1368DR,4318,4796,11795,01.122,552
2023-04-24T16:06:14,42.805,6.029,CST-1368DR,4318,4794,11790,01.124,551
2023-04-24T16:09:15,42.805,6.029,CST-1368DR,4318,4793,11787,01.125,552
2023-04-24T16:12:17,42.805,6.029,CST-1368DR,4318,4798,11800,01.121,552
2023-04-24T16:15:19,42.805,6.029,CST-1368DR,4318,4795,11791,01.124,551
2023-04-24T16:18:20,42.805,6.029,CST-1368DR,4318,4794,11789,01.125,552
2023-04-24T16:21:22,42.805,6.029,CST-1368DR,4318,4800,11803,01.120,551
2023-04-24T16:24:23,42.805,6.029,CST-1368DR,4318,4795,11791,01.124,551
2023-04-24T16:27:25,42.805,6.029,CST-1368DR,4318,4797,11797,01.122,551
2023-04-24T16:30:28,42.805,6.029,CST-1368DR,4318,4796,11795,01.122,552
2023-04-24T16:33:30,42.805,6.029,CST-1368DR,4318,4796,11795,01.122,552
2023-04-24T16:36:32,42.805,6.029,CST-1368DR,4318,4799,11802,01.120,551